[[{"header":{"parameterUnit":"m.s-1","parameterCategory":1,"la1":30.2991,"la2":30.254,"lo1":-89.0895,"lo2":-89.0444,"dy":0.0017,"dx":0.0017,"nx":28,"ny":28,"refTime":"2024-04-25T21:00:00:Z","depth":0,"parameterNumber":2,"parameterNumberName":"U-component_of_WINDS"},"data":[0,0,0,0,0,0,0,0,0,0,0,0,0,0,0,0,0,0,0,0,0,0,0,0,0,0,0,0,0,0,0,0,0,0,0,0,0,0,0,0,0,0,0,0,0,0,0,0,0,0,0,0,0,0,0,0,0,0,-0.823,-0.8229,0,-0.8102,-0.8101,-0.8099,-0.801,-0.8009,-0.8008,-0.8008,-0.7874,-0.7871,-0.7868,0,0,0,0,0,0,0,0,0,0,0,0,0,-0.8397,-0.8394,-0.8231,-0.8229,-0.8227,-0.8102,-0.8101,-0.8099,-0.801,-0.8009,-0.8008,-0.8007,-0.7875,-0.7872,-0.7868,0,0,0,0,0,0,0,0,0,0,0,0,0,-0.8302,-0.8394,-0.8231,-0.8168,-0.8161,-0.8103,-0.8101,-0.8098,-0.801,-0.8009,-0.8008,-0.8007,-0.7876,-0.7872,-0.7868,-0.7861,0,0,-0.7854,-0.7852,0,0,0,0,0,0,0,0,-0.8308,-0.8296,-0.8179,-0.8172,-0.8164,-0.8071,-0.811,-0.8019,-0.801,-0.8067,-0.8008,-0.8006,-0.794,-0.7931,-0.7909,-0.7855,-0.7849,-0.7854,-0.7851,-0.7849,-0.7848,0,0,0,0,0,0,0,-0.8314,-0.8301,-0.818,-0.8177,-0.8168,-0.8146,-0.8131,-0.8092,-0.8011,-0.8062,-0.8055,-0.8042,-0.7936,-0.7913,-0.7905,-0.7847,-0.7854,-0.785,-0.7847,-0.7846,-0.7782,-0.7783,0,0,0,0,0,0,-0.8331,-0.8307,-0.8184,-0.8176,-0.8235,-0.8143,-0.8127,-0.8102,-0.8011,-0.7996,-0.8043,-0.8038,-0.7921,-0.791,-0.79,-0.7887,-0.7849,-0.7845,-0.7843,-0.7781,-0.7782,-0.7783,0,0,0,0,0,0,-0.8335,-0.8321,-0.8189,-0.824,-0.8221,-0.8142,-0.8114,-0.81,-0.8077,-0.7996,-0.7981,-0.8034,-0.792,-0.7906,-0.7872,-0.7881,-0.7843,-0.7839,-0.778,-0.7781,-0.7783,-0.786,0,0,0,0,0,0,-0.834,-0.8323,-0.832,-0.824,-0.8219,-0.8164,-0.8115,-0.8098,-0.807,-0.8062,-0.7984,-0.7971,-0.7918,-0.7879,-0.7867,-0.7874,-0.7836,-0.7779,-0.7781,-0.7782,-0.7856,-0.7864,-0.7871,0,0,0,0,0,-0.8347,-0.8346,-0.832,-0.8306,-0.8213,-0.8164,-0.8152,-0.8092,-0.8071,-0.8067,-0.8015,-0.7973,-0.7882,-0.7876,-0.7862,-0.7868,-0.7778,-0.778,-0.7782,-0.7853,-0.7863,-0.787,0,0,0,0,0,0,-0.8428,-0.8335,-0.8305,-0.8279,-0.823,-0.8149,-0.8143,-0.8104,-0.806,-0.8054,-0.7981,-0.7964,-0.7938,-0.7899,-0.7895,-0.7857,-0.7825,-0.7824,-0.7883,-0.7891,-0.7898,-0.7908,-0.7832,0,0,0,0,0,-0.8443,-0.8412,-0.8331,-0.8316,-0.8294,-0.8223,-0.8199,-0.8157,-0.8104,-0.8082,-0.8028,-0.7977,-0.7937,-0.7912,-0.787,-0.7851,-0.7832,-0.7848,-0.7855,-0.7861,-0.7861,-0.7848,-0.7854,-0.779,-0.779,-0.779,0,0,-0.8474,-0.8419,-0.8403,-0.8331,-0.8289,-0.8257,-0.8206,-0.8175,-0.815,-0.8077,-0.8042,-0.8001,-0.7939,-0.7912,-0.7898,-0.7879,-0.7875,-0.7864,-0.7869,-0.7866,-0.7851,-0.7857,-0.7863,-0.7792,-0.7791,-0.7791,0,0,-0.8514,-0.8469,-0.8452,-0.8411,-0.8347,-0.83,-0.8296,-0.8221,-0.8191,-0.8155,-0.81,-0.807,-0.8002,-0.796,-0.793,-0.7956,-0.7915,-0.7944,-0.7981,-0.7969,-0.7975,-0.7979,-0.7988,-0.7992,-0.7945,-0.7945,-0.7945,0,-0.856,-0.8511,-0.8448,-0.842,-0.839,-0.8324,-0.8306,-0.8268,-0.8195,-0.8175,-0.8156,-0.807,-0.8024,-0.7987,-0.7993,-0.7971,-0.7964,-0.7953,-0.7979,-0.7982,-0.7985,-0.7994,-0.7997,-0.7949,-0.7949,-0.7948,-0.7948,0,-0.857,-0.8537,-0.8531,-0.8463,-0.8432,-0.8409,-0.8343,-0.8319,-0.828,-0.8236,-0.8199,-0.8142,-0.8088,-0.8076,-0.8037,-0.8033,-0.8024,-0.7993,-0.7959,-0.7997,-0.8003,-0.8006,-0.7955,-0.7954,-0.7952,-0.7951,0,0,-0.8657,-0.8555,-0.8554,-0.8523,-0.8448,-0.8421,-0.8396,-0.8344,-0.8325,-0.8277,-0.8254,-0.8198,-0.8169,-0.8136,-0.8092,-0.8081,-0.8106,-0.8051,-0.8049,-0.8064,-0.8098,-0.8123,-0.8127,-0.8079,-0.8079,-0.8079,-0.8104,0,-0.8686,-0.8638,-0.8581,-0.8551,-0.852,-0.8457,-0.8435,-0.8387,-0.8344,-0.8311,-0.8264,-0.8226,-0.819,-0.817,-0.8157,-0.8106,-0.8112,-0.8103,-0.8056,-0.8055,-0.8074,-0.8131,-0.8156,-0.8182,-0.8106,-0.8106,-0.8106,0,-0.8713,-0.8669,-0.8637,-0.8566,-0.8551,-0.8532,-0.8481,-0.845,-0.8394,-0.8364,-0.8327,-0.828,-0.825,-0.822,-0.8177,-0.8173,-0.815,-0.8122,-0.8122,-0.8115,-0.8083,-0.8126,-0.8188,-0.8193,-0.811,-0.8109,-0.8109,0,-0.8781,-0.8713,-0.8685,-0.866,-0.8577,-0.8565,-0.853,-0.8473,-0.8446,-0.84,-0.8382,-0.8333,-0.8307,-0.827,-0.8212,-0.8195,-0.8175,-0.814,-0.8149,-0.8151,-0.8148,-0.8149,-0.8208,-0.8133,-0.8133,-0.8133,-0.8133,0,-0.8819,-0.8802,-0.8715,-0.8698,-0.8677,-0.8612,-0.8593,-0.8551,-0.8502,-0.8475,-0.8417,-0.8394,-0.8318,-0.8285,-0.8239,-0.8211,-0.8199,-0.8174,-0.8162,-0.8179,-0.8182,-0.8163,-0.816,-0.8134,-0.8134,-0.8134,-0.8133,0,-0.8891,-0.8832,-0.8797,-0.8722,-0.8702,-0.869,-0.8625,-0.8606,-0.8561,-0.8528,-0.8517,-0.8445,-0.8404,-0.8342,-0.8282,-0.8251,-0.823,-0.821,-0.8249,-0.8242,-0.8255,-0.8255,-0.8304,-0.8307,-0.8231,-0.8231,-0.8232,0,-0.8919,-0.8905,-0.8828,-0.8807,-0.8774,-0.874,-0.8712,-0.8647,-0.862,-0.8556,-0.8545,-0.85,-0.846,-0.8397,-0.8339,-0.8293,-0.8271,-0.8292,-0.8264,-0.8282,-0.8272,-0.8274,-0.8272,-0.8299,-0.83,-0.8301,-0.8301,0,-0.8976,-0.8948,-0.8911,-0.8863,-0.8832,-0.8791,-0.8748,-0.8733,-0.8659,-0.8632,-0.859,-0.8559,-0.8498,-0.8454,-0.84,-0.8362,-0.832,-0.8311,-0.831,-0.8328,-0.8352,-0.834,-0.8268,-0.831,-0.8309,-0.8308,-0.8308,-0.8308,-0.9027,-0.9012,-0.8956,-0.8916,-0.8877,-0.8838,-0.8816,-0.8769,-0.8733,-0.8679,-0.8642,-0.8602,-0.8547,-0.847,-0.8435,-0.8403,-0.8384,-0.8384,-0.8384,-0.8385,-0.8391,-0.8357,-0.8392,-0.8392,-0.8392,-0.8391,-0.8391,0,-0.9082,-0.9043,-0.9007,-0.8948,-0.8917,-0.8881,-0.8831,-0.8807,-0.8773,-0.8725,-0.8688,-0.8639,-0.8596,-0.8535,-0.8488,-0.8473,-0.8453,-0.8463,-0.8463,-0.8456,-0.841,-0.8415,-0.848,-0.848,-0.848,-0.848,-0.848,-0.848,-0.9106,-0.9079,-0.9044,-0.8996,-0.8957,-0.8918,-0.8893,-0.8856,-0.8818,-0.8767,-0.8731,-0.8692,-0.8639,-0.8587,-0.8546,-0.8529,-0.8514,-0.8531,-0.8508,-0.8467,-0.8459,-0.8451,-0.8455,-0.8528,-0.8528,-0.8556,-0.8557,-0.8557]},{"header":{"parameterUnit":"m.s-1","parameterCategory":1,"la1":30.2991,"la2":30.254,"lo1":-89.0895,"lo2":-89.0444,"dy":0.0017,"dx":0.0017,"nx":28,"ny":28,"refTime":"2024-04-25T21:00:00:Z","depth":0,"parameterNumber":3,"parameterNumberName":"V-component_of_WINDS"},"data":[0,0,0,0,0,0,0,0,0,0,0,0,0,0,0,0,0,0,0,0,0,0,0,0,0,0,0,0,0,0,0,0,0,0,0,0,0,0,0,0,0,0,0,0,0,0,0,0,0,0,0,0,0,0,0,0,0,0,3.2944,3.2943,0,3.2889,3.2888,3.2888,3.2844,3.2844,3.2843,3.2843,3.2782,3.278,3.2779,0,0,0,0,0,0,0,0,0,0,0,0,0,3.3007,3.3006,3.2944,3.2943,3.2942,3.2889,3.2888,3.2888,3.2844,3.2844,3.2843,3.2843,3.2782,3.2781,3.2779,0,0,0,0,0,0,0,0,0,0,0,0,0,3.2968,3.3005,3.2944,3.2914,3.2911,3.2889,3.2888,3.2887,3.2844,3.2844,3.2843,3.2842,3.2782,3.2781,3.2779,3.278,0,0,3.2773,3.2772,0,0,0,0,0,0,0,0,3.297,3.2966,3.2919,3.2916,3.2913,3.2873,3.2888,3.2851,3.2844,3.2869,3.2843,3.2842,3.2812,3.2808,3.2799,3.2777,3.2775,3.2773,3.2772,3.2771,3.2771,0,0,0,0,0,0,0,3.2973,3.2968,3.2922,3.2919,3.2915,3.2903,3.2896,3.2881,3.2845,3.2867,3.2864,3.2858,3.281,3.2801,3.2797,3.2774,3.2773,3.2771,3.277,3.277,3.2751,3.2752,0,0,0,0,0,0,3.2981,3.2971,3.2924,3.292,3.2941,3.2902,3.2895,3.2886,3.2845,3.2838,3.2859,3.2856,3.2804,3.2799,3.2795,3.2794,3.2771,3.2769,3.2768,3.2751,3.2751,3.2752,0,0,0,0,0,0,3.2983,3.2977,3.2926,3.2944,3.2937,3.2902,3.2892,3.2885,3.2876,3.2839,3.2832,3.2856,3.2803,3.2797,3.2785,3.2791,3.2769,3.2767,3.275,3.2751,3.2752,3.2792,0,0,0,0,0,0,3.2985,3.2978,3.2979,3.2945,3.2936,3.2918,3.2892,3.2885,3.2873,3.287,3.2834,3.2828,3.2802,3.2788,3.2783,3.2788,3.2765,3.2749,3.275,3.2751,3.279,3.2794,3.2798,0,0,0,0,0,3.2987,3.2991,3.2979,3.2974,3.2937,3.2918,3.2913,3.2886,3.2874,3.2874,3.2851,3.2829,3.2791,3.2787,3.2781,3.2786,3.2748,3.275,3.2751,3.2788,3.2793,3.2798,0,0,0,0,0,0,3.3025,3.2986,3.2972,3.2966,3.2946,3.2911,3.291,3.2892,3.2873,3.287,3.2835,3.2828,3.2819,3.2801,3.2796,3.2785,3.2767,3.2767,3.2797,3.2802,3.2806,3.281,3.2764,0,0,0,0,0,3.3033,3.3023,3.2989,3.2986,3.2977,3.2946,3.2937,3.2918,3.2895,3.2885,3.286,3.2838,3.2821,3.281,3.2793,3.2787,3.2779,3.2788,3.2792,3.2795,3.2796,3.2792,3.2795,3.2757,3.2756,3.2756,0,0,3.3049,3.3026,3.3021,3.2994,3.2976,3.2965,3.2939,3.2928,3.2919,3.2883,3.287,3.2851,3.2824,3.2815,3.281,3.28,3.2805,3.2797,3.28,3.2798,3.2793,3.2797,3.28,3.2757,3.2757,3.2757,0,0,3.3072,3.3054,3.305,3.3034,3.3008,3.2987,3.2987,3.2955,3.2942,3.2929,3.2902,3.289,3.2861,3.2843,3.283,3.2848,3.2827,3.2843,3.2863,3.286,3.2863,3.2866,3.2872,3.2874,3.2844,3.2844,3.2844,0,3.3094,3.3078,3.305,3.3042,3.303,3.3,3.2995,3.298,3.2949,3.2941,3.2931,3.2895,3.2874,3.2861,3.2866,3.2856,3.2854,3.2846,3.2865,3.2867,3.2869,3.2875,3.2877,3.2846,3.2846,3.2846,3.2845,0,3.3106,3.3095,3.3095,3.3069,3.3057,3.305,3.3021,3.3013,3.2995,3.2975,3.2962,3.2937,3.2914,3.2909,3.2891,3.2893,3.2888,3.2872,3.2853,3.2876,3.288,3.2882,3.2849,3.2848,3.2848,3.2847,0,0,3.315,3.311,3.311,3.3098,3.3068,3.3059,3.3051,3.303,3.3023,3.3003,3.2995,3.2973,3.2959,3.2944,3.2923,3.292,3.2936,3.2904,3.2903,3.2911,3.2938,3.295,3.2953,3.2923,3.2923,3.2923,3.294,0,3.3168,3.3153,3.313,3.3122,3.3112,3.3083,3.3076,3.3057,3.3038,3.3026,3.3004,3.2989,3.2972,3.2963,3.2959,3.2935,3.2941,3.2934,3.2914,3.2913,3.2921,3.2955,3.2967,3.2984,3.2941,3.2942,3.2942,0,3.3186,3.317,3.3163,3.3135,3.313,3.3124,3.3104,3.3092,3.3069,3.3056,3.3041,3.3019,3.3008,3.2992,3.2976,3.2972,3.2962,3.295,3.295,3.2946,3.2929,3.2952,3.2988,3.2991,3.2944,3.2944,3.2944,0,3.3219,3.3195,3.3188,3.3178,3.3146,3.3142,3.3128,3.3105,3.3094,3.3076,3.3069,3.3049,3.3038,3.3023,3.2996,3.2987,3.2983,3.2964,3.2971,3.2972,3.297,3.2971,3.3006,3.2965,3.2965,3.2965,3.2965,0,3.3241,3.3237,3.3202,3.3198,3.3193,3.3165,3.3161,3.3144,3.3124,3.3114,3.3088,3.308,3.3045,3.3032,3.3011,3.3001,3.2996,3.2985,3.2979,3.2987,3.2988,3.2979,3.2977,3.2966,3.2966,3.2966,3.2966,0,3.3276,3.3253,3.3243,3.3213,3.3206,3.3204,3.3178,3.3172,3.3153,3.3141,3.3137,3.3106,3.309,3.3062,3.3037,3.3023,3.3017,3.3008,3.3026,3.3022,3.303,3.3029,3.306,3.3062,3.3021,3.3022,3.3022,0,3.3291,3.3288,3.3259,3.3252,3.324,3.3228,3.3218,3.3191,3.3181,3.3156,3.3153,3.3135,3.312,3.3095,3.3069,3.305,3.304,3.3052,3.3037,3.3045,3.304,3.304,3.304,3.3055,3.3056,3.3056,3.3057,0,3.3321,3.331,3.3297,3.3281,3.327,3.3256,3.3239,3.3235,3.3204,3.3194,3.3178,3.3166,3.3143,3.3125,3.3103,3.3086,3.3066,3.3062,3.3062,3.307,3.3081,3.3075,3.3035,3.3061,3.3061,3.306,3.306,3.306,3.3346,3.3342,3.3322,3.3309,3.3294,3.328,3.3274,3.3255,3.3242,3.3222,3.3206,3.3192,3.3169,3.3137,3.3123,3.311,3.3101,3.3101,3.3101,3.3102,3.3105,3.3084,3.3106,3.3106,3.3105,3.3105,3.3105,0,3.3374,3.336,3.3349,3.3328,3.3318,3.3302,3.3284,3.3276,3.3264,3.3246,3.3232,3.3214,3.3197,3.3171,3.3152,3.3147,3.3137,3.3143,3.3143,3.3139,3.3114,3.3116,3.3151,3.3151,3.3151,3.3151,3.3151,3.3151,3.3387,3.3381,3.3368,3.3353,3.3339,3.3326,3.3317,3.3303,3.3289,3.3271,3.3258,3.3242,3.322,3.32,3.3184,3.3176,3.317,3.3179,3.3168,3.3145,3.3141,3.3137,3.3138,3.3178,3.3178,3.3194,3.3195,3.3195]}]]